Location: Esselberg
(49.0389°N, 11.2684°E)
Time: 00:36:40
(UTC+00:00)

Daily predictions for brighter satellites

Satellite Brightness Start Highest point End
(mag) Time Altitude Azimuth Time Altitude Azimuth Time Altitude Azimuth
SL-16 R/B 3.5 00:12:20 42° NNE 00:12:20 42° NNE 00:16:48 10° N
Cosmos 1943 Rocket 4.0 00:17:17 25° NNW 00:17:17 25° NNW 00:20:20 10° NNE
ATLAS 5 CENTAUR R/B 4.4 00:26:24 14° NE 00:26:24 14° NE 00:27:04 10° NE
CZ-2D R/B 3.9 00:18:02 10° NNE 00:20:45 26° NE 00:20:45 26° NE
Cosmos 2297 Rocket 3.7 00:25:06 10° NNW 00:28:49 34° NNE 00:28:49 34° NNE
Resurs 1-4 Rocket 3.7 00:31:56 10° NNE 00:34:54 31° NE 00:34:54 31° NE
Cosmos 2369 Rocket 3.9 00:41:05 26° NNW 00:41:05 26° NNW 00:44:31 10° NNE
CZ-4C R/B 4.1 00:47:10 23° NW 00:48:35 25° NNW 00:54:03 10° NE
USA 267 4.2 00:50:08 10° ENE 00:54:57 35° ESE 00:54:57 35° ESE
SL-8 Rocket 4.4 01:07:21 10° N 01:12:13 56° NNW 01:12:13 56° NNW
Cosmos 2218 Rocket 4.2 01:18:37 10° N 01:24:06 67° NNW 01:24:06 67° NNW
Cosmos 2366 rocket 4.1 01:21:13 10° N 01:26:34 67° NNW 01:26:34 67° NNW
Cosmos 2227 Rocket 3.3 01:22:00 10° NNW 01:25:13 35° NNW 01:25:13 35° NNW
Cosmos 1656 4.2 01:30:38 52° E 01:30:38 52° E 01:35:21 10° NE
Lacrosse 5 3.5 01:32:48 25° ESE 01:32:48 25° ESE 01:36:00 10° ENE
USA 234 3.3 01:26:15 10° ESE 01:32:46 75° NNE 01:37:43 19° NW
ADEOS II 2.4 01:33:46 10° NNE 01:38:28 63° ENE 01:38:28 63° ENE
CZ-4B R/B 3.9 01:36:31 10° NNE 01:40:48 62° NE 01:40:48 62° NE
SL-08 R/B 3.9 01:47:13 53° NNE 01:47:13 53° NNE 01:51:03 10° N
Cosmos 2181 Rocket 4.1 01:47:57 59° NW 01:47:57 59° NW 01:53:30 10° N
SL-08 R/B 4.4 01:42:19 10° N 01:48:46 90° ENE 01:49:27 73° S
Cosmos 1633 Rocket 4.4 01:46:19 10° N 01:48:58 35° N 01:48:58 35° N
IDEFIX/ARIANE 42P 3.8 01:47:03 10° NNE 01:51:56 36° E 01:53:40 29° SE
SL-16 R/B 3.9 01:57:26 23° NW 01:57:26 23° NW 02:00:12 10° NNW
Cosmos 1241 Rocket 4.5 01:54:48 65° WNW 01:55:06 66° NW 02:01:32 10° NE
IRS-1C 4.3 01:50:11 10° NNE 01:55:30 64° ESE 01:55:57 61° SE
Cosmos 2369 4.5 01:54:42 40° SE 01:55:48 45° ESE 02:01:14 10° NE
Cosmos 1151 Rocket 3.7 02:00:38 52° ENE 02:00:38 52° ENE 02:04:23 10° NNE
ARIANE 5 R/B 3.0 01:56:03 10° NNE 02:01:05 54° E 02:01:51 49° SE
IRS-1D 3.6 01:56:48 10° N 02:01:47 69° NW 02:01:47 69° NW
CZ-2D R/B 3.1 01:58:09 10° N 02:02:04 34° NW 02:02:04 34° NW
ATLAS 5 CENTAUR R/B 2.7 02:07:56 35° NNW 02:07:56 35° NNW 02:11:57 10° NNE
NPP 4.4 02:04:09 10° N 02:08:28 38° NW 02:08:28 38° NW
CBERS-1 4.2 02:09:17 10° N 02:13:59 58° NW 02:13:59 58° NW
Cosmos 2297 Rocket 4.1 02:09:17 10° NW 02:10:32 16° NW 02:10:32 16° NW
Resurs 1-4 Rocket 3.3 02:12:12 10° N 02:15:58 28° NW 02:15:58 28° NW
Cosmos 1933 3.9 02:18:15 55° N 02:18:15 55° N 02:21:29 10° N
Cosmos 2082 3.5 02:13:18 10° NNW 02:18:59 72° WSW 02:20:23 51° S
USA 305 3.6 02:22:42 46° SE 02:22:42 46° SE 02:26:28 10° ENE
Meteor 1-26 Rocket 4.3 02:24:04 36° SSE 02:26:16 68° E 02:31:39 10° NNE
USA 306 3.4 02:26:37 49° SE 02:26:37 49° SE 02:30:33 10° ENE
X-37B 3.0 02:29:08 19° ESE 02:29:08 19° ESE 02:30:17 10° ESE
CZ-2D R/B 3.7 02:24:00 10° NNE 02:28:11 67° ESE 02:28:45 59° SSE
SJ 16-02 3.1 02:25:09 10° N 02:29:08 32° ENE 02:33:05 10° ESE
Meteor 1-25 Rocket 4.1 02:25:01 10° NNW 02:30:50 71° W 02:33:00 39° S
Cosmos 389 Rocket 3.5 02:32:18 40° ESE 02:32:45 42° E 02:36:09 10° NNE
Gbstr 26 Del rocket 4.5 02:27:26 24° WNW 02:32:46 81° NNE 02:40:18 10° ESE
Cosmos 1697 Rocket 2.6 02:32:33 53° SSW 02:33:59 87° WNW 02:39:39 10° NNE
ASTEX 1 3.5 02:29:14 10° N 02:34:16 79° E 02:36:22 35° S
IRS-P3 4.1 02:29:22 10° N 02:34:39 61° WNW 02:35:28 54° WSW
H-2A R/B 2.7 02:32:53 10° SSE 02:37:09 57° ENE 02:41:32 10° N
Cosmos 1980 Rocket 2.6 02:35:19 29° S 02:38:06 59° ESE 02:43:40 10° NE
CZ-2C R/B 4.2 02:33:41 10° NNE 02:38:14 31° E 02:42:49 10° SSE
USA 267 3.2 02:33:01 10° NE 02:39:35 82° NNW 02:42:17 39° WSW
ERS-2 3.9 02:37:18 10° SE 02:40:36 33° ENE 02:43:56 10° N
Iridium 2 4.1 02:39:47 45° SE 02:40:40 60° E 02:44:23 10° NNE
Cosmos 1602 3.8 02:39:54 10° NNW 02:43:13 62° NW 02:43:13 62° NW
ERS-1 4.5 02:39:18 10° N 02:44:23 66° WNW 02:45:42 47° SW
Cosmos 2263 Rocket 2.8 02:39:40 10° NNW 02:45:15 58° ENE 02:50:50 10° SE
Helios 1B 4.5 02:43:13 15° SSE 02:46:45 88° ENE 02:51:07 10° NNW
SL-8 R/B 3.6 02:46:01 57° WSW 02:46:51 72° SSW 02:51:36 10° ESE
Cosmos 1818 4.5 02:46:11 31° WNW 02:47:35 36° NW 02:52:36 10° NNE
Meteor 1-14 Rocket 4.1 02:41:56 10° NNW 02:47:37 88° W 02:53:10 10° S
SL-16 R/B 4.3 02:47:05 10° SSE 02:51:31 24° ESE 02:55:58 10° NE
ATLAS 2AS CENTAUR R/B 4.1 02:44:24 10° NW 02:51:38 41° NNE 02:58:20 10° E
USA 307 2.9 02:52:25 55° SSW 02:53:12 72° SSE 02:57:27 10° ENE
NOSS 2-2 (D) 4.5 02:48:09 10° NW 02:53:42 63° SW 03:01:24 10° SSE
Cosmos 1821 Rocket 4.2 02:48:03 10° NNW 02:54:02 47° W 02:56:29 32° SW
Cosmos 1470 Rocket 3.8 02:51:15 10° NNW 02:55:25 46° W 02:55:25 46° W
Cosmos 1812 4.1 02:52:24 10° SSE 02:55:59 38° E 02:59:35 10° NNE
Cosmos 2227 4.4 02:50:34 10° NNW 02:56:16 72° ENE 03:01:52 10° SE
USA 308 2.9 02:55:23 53° SW 02:56:17 74° SSE 03:00:33 10° ENE
Spot 4 Rocket 3.9 02:52:08 10° NNE 02:57:18 74° WNW 02:59:45 32° SSW
Cosmos 1500 3.5 02:56:41 10° N 03:00:33 68° E 03:04:20 10° SSE
Cosmos 972 4.4 02:59:29 23° SSW 03:02:40 79° ESE 03:07:34 10° NNE
Landsat 5 3.5 03:00:41 10° S 03:05:12 78° WSW 03:09:44 10° NNW
Cosmos 1666 4.3 03:02:47 10° N 03:06:22 36° ENE 03:09:55 10° SE
Meteor 1-5 Rocket 4.2 03:01:44 10° N 03:07:04 76° ENE 03:12:26 10° SSE
Cosmos 1934 Rocket 3.9 03:03:14 10° NNW 03:09:11 58° W 03:15:06 10° S
Cosmos 1777 Rocket 4.5 03:05:16 10° NW 03:10:00 36° WSW 03:12:05 26° SW
Cosmos 1782 3.0 03:10:11 41° WSW 03:11:04 50° WNW 03:15:00 10° N
Cosmos 1238 Rocket 4.0 03:04:52 10° NNW 03:11:27 64° W 03:17:35 10° S
ERBS 4.5 03:09:57 14° S 03:11:45 20° SE 03:14:18 10° E
Cosmos 1898 Rocket 4.2 03:08:50 10° NNW 03:14:01 58° ENE 03:19:13 10° SE
Lacrosse 5 1.8 03:12:00 33° WSW 03:14:19 76° NNW 03:19:26 10° NE
ADEOS Rocket 3.4 03:08:58 10° SSE 03:15:47 73° ENE 03:21:55 10° NNW
CZ-4B R/B 2.9 03:13:00 10° SE 03:15:56 37° ENE 03:18:58 10° N
USA 234 3.5 03:09:52 10° SSE 03:16:03 44° SW 03:22:16 10° WNW
Cosmos 1515 Rocket 3.9 03:15:08 33° WSW 03:16:36 45° WNW 03:20:55 10° N
CZ-2C R/B 2.7 03:13:20 10° N 03:17:02 58° WNW 03:18:32 33° SW
ADEOS II 3.4 03:14:21 10° N 03:18:15 21° WNW 03:19:23 20° WNW
IRIDIUM 114 4.3 03:15:11 10° N 03:20:27 86° E 03:25:41 10° S
USA 276 2.1 03:21:38 42° W 03:22:34 79° N 03:25:49 10° E
USA 32 4.5 03:19:22 10° N 03:24:35 65° E 03:29:48 10° SSE
Cosmos 44 3.1 03:24:49 22° SW 03:27:38 87° SE 03:32:21 10° NE
MSX 3.9 03:22:07 10° N 03:27:47 58° WNW 03:32:39 14° SW
Cosmos 1356 4.0 03:24:49 10° NNW 03:27:58 34° W 03:28:27 32° WSW
IRIDIUM 103 4.2 03:24:21 10° N 03:29:35 80° W 03:34:48 10° S
Cosmos 1707 Rocket 4.4 03:25:49 10° S 03:29:59 50° E 03:34:13 10° NNE
Cosmos 921 Rocket 2.8 03:27:48 14° SSW 03:31:24 89° W 03:35:37 10° NNE
IDEFIX/ARIANE 42P 3.2 03:26:42 10° N 03:31:31 37° WNW 03:34:29 20° WSW
Cosmos 2278 3.9 03:28:10 21° SW 03:31:58 57° WNW 03:37:37 10° NNE
Cosmos 1605 Rocket 4.0 03:25:41 10° NNW 03:31:59 62° W 03:38:15 10° S
Meteor 1-11 Rocket 3.9 03:26:21 10° N 03:32:13 81° ENE 03:37:55 10° SSE
Cosmos 1933 Rocket 4.4 03:29:00 10° NNW 03:32:44 28° W 03:34:18 22° WSW
CZ-3B R/B 3.2 03:32:05 20° WNW 03:34:27 53° N 03:45:31 10° ENE
Cosmos 2228 Rocket 3.1 03:31:12 15° SSW 03:34:44 56° WNW 03:39:05 10° N
SAR-Lupe-4 4.1 03:34:02 10° SSE 03:37:34 63° ENE 03:41:09 10° N
ARIANE 5 R/B 3.7 03:35:45 10° N 03:39:52 25° WNW 03:42:10 18° W
Cosmos 2369 4.4 03:36:41 20° WSW 03:40:06 37° NW 03:45:26 10° NNE
Cosmos 1937 Rocket 3.7 03:38:00 10° NNW 03:43:11 73° ENE 03:48:18 10° SSE
CZ-4C R/B 4.1 03:42:39 19° SW 03:44:08 25° W 03:47:09 10° NW
ALOS 3.2 03:42:18 10° NNE 03:46:52 50° E 03:51:23 10° S
Cosmos 1733 Rocket 3.7 03:42:42 10° N 03:47:02 59° ENE 03:51:18 10° SSE
IRIDIUM 106 4.4 03:42:45 10° N 03:47:53 57° W 03:52:58 10° SSW
Meteor 1-27 Rocket 4.1 03:42:13 10° S 03:48:07 73° E 03:54:02 10° NNE
SAR-Lupe-1 4.1 03:46:19 10° SSE 03:49:53 84° ENE 03:53:29 10° NNW
Cosmos 1536 2.9 03:46:43 10° N 03:50:49 84° E 03:54:53 10° S
Cosmos 1869 Rocket 3.9 03:47:44 10° NNW 03:51:51 42° W 03:55:55 10° SSW
ATLAS 5 CENTAUR R/B 3.9 03:50:30 10° NW 03:53:34 17° N 03:56:56 10° NNE
Cosmos 1484 Rocket 3.4 03:51:45 10° NNE 03:55:43 63° E 03:59:40 10° S
GENESIS II 4.3 03:51:47 10° SW 03:55:48 82° SE 03:59:52 10° NE
Meteor 1-4 Rocket 2.5 03:53:32 10° SSW 03:56:58 59° WNW 04:00:27 10° N
USA 305 3.2 03:58:51 14° W 04:02:23 56° NNW 04:06:35 10° ENE
X-37B 1.5 04:01:25 15° WSW 04:03:38 35° S 04:06:35 10° ESE
Cosmos 1862 Rocket 4.3 03:59:29 10° S 04:03:47 56° E 04:08:05 10° NNE
Cosmos 1689 Rocket 2.5 04:01:25 10° SSE 04:04:20 65° ENE 04:07:18 10° N
USA 306 3.3 04:02:46 13° W 04:06:28 55° NNW 04:10:40 10° ENE
Meteor 1-31 Rocket 3.2 04:02:41 10° NNE 04:06:30 67° ESE 04:10:18 10° S
Cosmos 2100 Rocket 4.0 04:00:14 10° NNW 04:06:38 80° W 04:13:00 10° S
Cosmos 1727 Rocket 4.1 04:01:07 10° SSW 04:07:24 63° WNW 04:13:42 10° N
Cosmos 1763 Rocket 3.6 04:02:08 10° SSW 04:07:28 88° WNW 04:12:49 10° NNE
SJ 16-02 2.0 04:03:47 10° NW 04:07:40 31° WSW 04:11:32 10° SSW
Cosmos 389 Rocket 4.3 04:06:11 13° W 04:07:42 16° WNW 04:09:55 10° NNW
PSLV R/B 4.1 04:05:03 10° N 04:08:56 37° WNW 04:12:48 10° SW
Cosmos 1802 Rocket 4.1 04:02:46 10° N 04:08:59 84° E 04:15:15 10° S
Cosmos 2360 Rocket 3.5 04:06:48 10° S 04:12:08 44° ESE 04:17:30 10° NE
H-2A R/B 3.5 04:10:29 10° SW 04:13:29 18° W 04:16:33 10° NW
ERS-2 3.3 04:11:21 10° SSW 04:14:14 22° W 04:17:07 10° NW
CZ-2C R/B 3.0 04:11:46 10° N 04:16:32 41° WNW 04:21:21 10° SW
Cosmos 1697 Rocket 4.2 04:14:35 10° W 04:18:47 21° NW 04:23:00 10° N
NOSS 3-4 (A) 3.9 04:12:11 10° NW 04:19:09 84° SW 04:26:53 10° SE
NOSS 3-4 (C) 3.9 04:12:18 10° NW 04:19:15 85° SW 04:27:00 10° SE
METEOR-M 4.3 04:15:34 10° NNE 04:20:58 84° ESE 04:26:20 10° SSW
USA 267 3.9 04:16:02 10° ENE 04:22:15 48° N 04:28:28 10° W
Cosmos 1980 Rocket 3.2 04:17:31 10° WSW 04:22:29 30° NW 04:27:28 10° NNE
FENGYUN 3A 3.7 04:18:54 10° NNE 04:24:18 79° WNW 04:29:42 10° SSW
Cosmos 1844 4.3 04:19:43 10° NNW 04:25:17 63° ENE 04:30:47 10° SE
Cosmos 2322 Rocket 2.3 04:21:43 10° SSW 04:27:25 84° WNW 04:33:10 10° NNE
Cosmos 1459 Rocket 4.0 04:22:21 10° NNW 04:28:22 60° W 04:34:16 10° S
SJ-12 4.2 04:24:34 10° NNE 04:28:43 74° ESE 04:32:51 10° S
Cosmos 2263 Rocket 3.1 04:24:10 10° NW 04:28:50 27° WSW 04:33:28 10° SSW
CZ-4C R/B 3.8 04:22:48 10° NW 04:29:27 50° NE 04:37:13 10° ESE
NOSS 3-3 (A) 4.2 04:23:43 10° WSW 04:29:33 60° NW 04:36:16 10° NE
NOSS 3-3 (C) 4.2 04:23:54 10° WSW 04:29:40 60° NW 04:36:20 10° NE
Cosmos 468 Rocket 4.3 04:27:02 10° SW 04:32:12 52° WNW 04:37:22 10° NNE
Cosmos 2123 Rocket 4.3 04:26:00 10° S 04:32:12 77° E 04:38:31 10° NNE
